User: anonymous
Location: Caltech
(34.1382°N, 118.1253°W)
Time: 13:01:11
(UTC-07:00)
Language:

Cosmos 2251 Rocket - Orbit

View from above orbital plane
View from above orbital plane
View from above satellite
View from above satellite

Ground track
Ground track

The orbit data is extracted from the following two-line orbital elements,

1 22676U 93036B   14233.46148760  .00000047  00000-0  26182-4 0  2978
2 22676 074.0413 266.6183 0018759 189.7685 170.3104 14.33627589107619
Epoch (UTC): 21 August 2014 11:04:32
Eccentricity: 0.0018759
inclination: 74.0413°
perigee height: 766 km
apogee height: 793 km
right ascension of ascending node: 266.6183°
argument of perigee: 189.7685°
revolutions per day: 14.33627589
mean anomaly at epoch: 170.3104°
orbit number at epoch: 10761

The dashed part of the orbit path shows where the satellite is in the earth's shadow,  

DLR